Date String (YYYY-MM-DD hh:mm:ss) UTC,Instrument flags,absolute air pressure of the measurement (hPa),sample flow rate (lpm),inlet stack bypass flow (lpm),air temperature of the measurement (°C),ambient temperature measured by the external sensor (°C),aerosol sample conditioner tube jacket temperature (°C),OPC LED temperature (°C),internal box temperature (°C),relative humidity of the measurement (%),span deviation,mass concentration of particles derived from Lorenz-Mie calculation of OPC scattering (μg/m³),mass concentration of particles derived from Lorenz-Mie calculation of OPC scattering (μg/m³),mass concentration of particles derived from Lorenz-Mie calculation of OPC scattering (μg/m³)
DateTimeUTC,F1_M11,P_M11,Q1_M11,Q2_M11,T1_M11,T2_M11,T3_M11,T4_M11,T5_M11,U1_M11,ZSPAN_M11,X0_M11,X2_M11,X1_M11
2024-02-15 00:00:00,SystemResetWarning,0826.4,5.00,000.00,022.8,022.3,000.0,031.2,024.6,12.1,0000.0,0002.71,0001.08,0000.75
2024-02-15 00:01:00,SystemResetWarning,0826.4,5.00,000.00,022.8,022.3,000.0,031.2,024.6,12.6,0000.0,0003.74,0001.08,0000.74
2024-02-15 00:02:00,SystemResetWarning,0826.4,5.00,000.00,022.8,022.3,000.0,031.2,024.6,13.0,0000.0,0004.53,0001.05,0000.74
2024-02-15 00:03:00,SystemResetWarning,0826.4,5.01,000.00,022.8,022.3,000.0,031.2,024.6,13.1,0000.0,0004.56,0001.07,0000.74
2024-02-15 00:04:00,SystemResetWarning,0826.4,5.01,000.00,022.8,022.3,000.0,031.2,024.6,13.0,0000.0,0004.58,0001.07,0000.73
2024-02-15 00:05:00,SystemResetWarning,0826.4,4.99,000.00,022.8,022.3,000.0,031.2,024.7,12.9,0000.0,0004.61,0001.05,0000.75
2024-02-15 00:06:00,SystemResetWarning,0826.4,5.00,000.00,022.9,022.3,000.0,031.2,024.7,13.1,0000.0,0004.54,0001.04,0000.75
2024-02-15 00:07:00,SystemResetWarning,0826.3,5.00,000.00,022.9,022.4,000.0,031.2,024.7,13.2,0000.0,0004.65,0001.07,0000.76
2024-02-15 00:08:00,SystemResetWarning,0826.3,5.00,000.00,022.9,022.4,000.0,031.2,024.7,13.0,0000.0,0004.57,0001.05,0000.78
2024-02-15 00:09:00,SystemResetWarning,0826.3,4.99,000.00,022.9,022.3,000.0,031.2,024.7,13.0,0000.0,0004.66,0001.15,0000.89
2024-02-15 00:10:00,SystemResetWarning,0826.4,5.01,000.00,022.9,022.3,000.0,031.2,024.7,13.4,0000.0,0006.18,0001.35,0001.05
2024-02-15 00:11:00,SystemResetWarning,0826.4,5.01,000.00,022.9,022.3,000.0,031.2,024.7,14.3,0000.0,0006.18,0001.60,0001.23
2024-02-15 00:12:00,SystemResetWarning,0826.4,5.01,000.00,022.9,022.3,000.0,031.2,024.7,15.0,0000.0,0005.52,0001.78,0001.38
2024-02-15 00:13:00,SystemResetWarning,0826.4,4.99,000.00,022.9,022.3,000.0,031.3,024.7,15.3,0000.0,0004.89,0001.98,0001.56
2024-02-15 00:14:00,SystemResetWarning,0826.4,4.99,000.00,022.9,022.3,000.0,031.3,024.7,15.4,0000.0,0005.22,0002.15,0001.73
2024-02-15 00:15:00,SystemResetWarning,0826.5,4.99,000.00,022.9,022.3,000.0,031.3,024.7,15.5,0000.0,0005.60,0002.34,0001.91
2024-02-15 00:16:00,SystemResetWarning,0826.4,5.00,000.00,022.9,022.3,000.0,031.3,024.7,15.5,0000.0,0006.26,0002.48,0002.03
2024-02-15 00:17:00,SystemResetWarning,0826.4,5.00,000.00,022.9,022.3,000.0,031.3,024.7,15.5,0000.0,0007.08,0002.69,0002.20
2024-02-15 00:18:00,SystemResetWarning,0826.4,5.01,000.00,022.9,022.3,000.0,031.3,024.7,15.5,0000.0,0007.45,0002.92,0002.41
2024-02-15 00:19:00,SystemResetWarning,0826.6,5.00,000.00,022.9,022.3,000.0,031.3,024.7,15.5,0000.0,0007.79,0003.21,0002.69
2024-02-15 00:20:00,SystemResetWarning,0826.6,5.00,000.00,022.9,022.4,000.0,031.3,024.7,15.4,0000.0,0008.17,0003.43,0002.97
2024-02-15 00:21:00,SystemResetWarning,0826.6,4.99,000.00,022.9,022.3,000.0,031.3,024.7,15.5,0000.0,0008.10,0003.59,0003.14
2024-02-15 00:22:00,SystemResetWarning,0826.5,4.99,000.00,022.9,022.3,000.0,031.3,024.7,15.7,0000.0,0007.82,0003.68,0003.25
2024-02-15 00:23:00,SystemResetWarning,0826.6,5.00,000.00,022.9,022.3,000.0,031.3,024.7,15.7,0000.0,0008.30,0003.80,0003.36
2024-02-15 00:24:00,SystemResetWarning,0826.6,5.01,000.00,022.9,022.3,000.0,031.3,024.7,15.7,0000.0,0008.46,0003.93,0003.48
2024-02-15 00:25:00,SystemResetWarning,0826.6,5.01,000.00,022.9,022.3,000.0,031.3,024.7,15.7,0000.0,0008.95,0004.08,0003.59
2024-02-15 00:26:00,SystemResetWarning,0826.6,4.99,000.00,022.9,022.3,000.0,031.3,024.7,15.7,0000.0,0009.28,0004.23,0003.69
2024-02-15 00:27:00,SystemResetWarning,0826.7,5.00,000.00,022.9,022.3,000.0,031.3,024.6,15.6,0000.0,0009.12,0004.37,0003.81
2024-02-15 00:28:00,SystemResetWarning,0826.8,4.99,000.00,022.9,022.3,000.0,031.3,024.6,15.7,0000.0,0009.39,0004.52,0003.91
2024-02-15 00:29:00,SystemResetWarning,0826.8,5.01,000.00,022.9,022.3,000.0,031.3,024.6,15.7,0000.0,0009.77,0004.61,0003.99
2024-02-15 00:30:00,SystemResetWarning,0826.8,5.01,000.00,022.9,022.3,000.0,031.3,024.6,15.8,0000.0,0010.24,0004.65,0004.03
2024-02-15 00:31:00,SystemResetWarning,0826.8,5.00,000.00,022.9,022.3,000.0,031.3,024.6,15.8,0000.0,0010.58,0004.60,0004.03
2024-02-15 00:32:00,SystemResetWarning,0826.8,5.00,000.00,022.8,022.3,000.0,031.3,024.6,15.8,0000.0,0010.50,0004.58,0004.02
2024-02-15 00:33:00,SystemResetWarning,0826.9,5.00,000.00,022.8,022.3,000.0,031.3,024.6,15.8,0000.0,0010.59,0004.56,0004.00
2024-02-15 00:34:00,SystemResetWarning,0826.9,5.00,000.00,022.8,022.3,000.0,031.3,024.6,15.8,0000.0,0010.06,0004.53,0003.98
2024-02-15 00:35:00,SystemResetWarning,0827.0,5.00,000.00,022.8,022.3,000.0,031.3,024.6,15.8,0000.0,0010.67,0004.52,0003.95
2024-02-15 00:36:00,SystemResetWarning,0827.0,4.99,000.00,022.8,022.3,000.0,031.3,024.6,15.8,0000.0,0010.89,0004.50,0003.91
2024-02-15 00:37:00,SystemResetWarning,0827.0,5.00,000.00,022.8,022.2,000.0,031.3,024.6,15.7,0000.0,0010.57,0004.46,0003.89
2024-02-15 00:38:00,SystemResetWarning,0827.0,5.01,000.00,022.8,022.2,000.0,031.3,024.6,15.7,0000.0,0010.44,0004.41,0003.86
2024-02-15 00:39:00,SystemResetWarning,0827.0,5.00,000.00,022.8,022.2,000.0,031.3,024.6,15.7,0000.0,0010.35,0004.36,0003.83
2024-02-15 00:40:00,SystemResetWarning,0827.0,5.00,000.00,022.8,022.2,000.0,031.3,024.6,15.6,0000.0,0010.13,0004.31,0003.80
2024-02-15 00:41:00,SystemResetWarning,0827.0,5.01,000.00,022.8,022.2,000.0,031.3,024.6,15.5,0000.0,0009.81,0004.28,0003.78
2024-02-15 00:42:00,SystemResetWarning,0827.0,5.00,000.00,022.8,022.2,000.0,031.3,024.6,15.5,0000.0,0009.66,0004.27,0003.77
2024-02-15 00:43:00,SystemResetWarning,0827.1,5.01,000.00,022.8,022.2,000.0,031.3,024.6,15.4,0000.0,0009.83,0004.25,0003.75
2024-02-15 00:44:00,SystemResetWarning,0827.1,5.00,000.00,022.8,022.2,000.0,031.3,024.6,15.4,0000.0,0009.66,0004.24,0003.75
2024-02-15 00:45:00,SystemResetWarning,0827.1,4.99,000.00,022.8,022.1,000.0,031.2,024.5,15.3,0000.0,0009.62,0004.21,0003.74
2024-02-15 00:46:00,SystemResetWarning,0827.1,5.00,000.00,022.8,022.1,000.0,031.2,024.6,15.3,0000.0,0009.21,0004.18,0003.72
2024-02-15 00:47:00,SystemResetWarning,0827.1,4.99,000.00,022.7,022.1,000.0,031.2,024.5,15.3,0000.0,0008.51,0004.16,0003.71
2024-02-15 00:48:00,SystemResetWarning,0827.1,5.00,000.00,022.7,022.1,000.0,031.2,024.5,15.4,0000.0,0008.92,0004.15,0003.70
2024-02-15 00:49:00,SystemResetWarning,0827.1,5.00,000.00,022.7,022.1,000.0,031.2,024.5,15.4,0000.0,0009.12,0004.17,0003.69
2024-02-15 00:50:00,SystemResetWarning,0827.2,4.99,000.00,022.7,022.1,000.0,031.2,024.5,15.4,0000.0,0009.15,0004.17,0003.67
2024-02-15 00:51:00,SystemResetWarning,0827.2,5.00,000.00,022.7,022.1,000.0,031.2,024.5,15.4,0000.0,0009.45,0004.16,0003.66
2024-02-15 00:52:00,SystemResetWarning,0827.1,5.00,000.00,022.7,022.1,000.0,031.2,024.5,15.4,0000.0,0009.34,0004.16,0003.66
2024-02-15 00:53:00,SystemResetWarning,0827.1,5.01,000.00,022.7,022.1,000.0,031.2,024.5,15.4,0000.0,0010.07,0004.16,0003.65
2024-02-15 00:54:00,SystemResetWarning,0827.2,5.00,000.00,022.7,022.1,000.0,031.2,024.5,15.3,0000.0,0009.76,0004.15,0003.65
2024-02-15 00:55:00,SystemResetWarning,0827.2,5.00,000.00,022.7,022.1,000.0,031.2,024.5,15.3,0000.0,0009.87,0004.16,0003.65
2024-02-15 00:56:00,SystemResetWarning,0827.2,5.00,000.00,022.7,022.1,000.0,031.2,024.5,15.3,0000.0,0010.54,0004.20,0003.66
2024-02-15 00:57:00,SystemResetWarning,0827.3,5.00,000.00,022.7,022.1,000.0,031.2,024.5,15.3,0000.0,0010.50,0004.21,0003.66
2024-02-15 00:58:00,SystemResetWarning,0827.3,5.00,000.00,022.7,022.1,000.0,031.2,024.5,15.3,0000.0,0010.99,0004.21,0003.67
2024-02-15 00:59:00,SystemResetWarning,0827.3,5.01,000.00,022.7,022.1,000.0,031.2,024.5,15.3,0000.0,0010.41,0004.19,0003.67
